TimeCST,TemperatureF,Dew PointF,Humidity,Sea Level PressureIn,VisibilityMPH,Wind Direction,Wind SpeedMPH,Gust SpeedMPH,PrecipitationIn,Events,Conditions,WindDirDegrees,DateUTC
12:53 AM,3.9,-9.9,53,30.42,10.0,NW,13.8,23.0,N/A,,Clear,320,2014-01-06 06:53:00
1:53 AM,3.0,-11.9,50,30.44,10.0,NW,12.7,-,N/A,,Clear,320,2014-01-06 07:53:00
2:53 AM,1.9,-11.9,52,30.47,10.0,NW,11.5,20.7,N/A,,Clear,310,2014-01-06 08:53:00
3:53 AM,1.0,-11.9,55,30.47,10.0,WNW,11.5,19.6,N/A,,Clear,300,2014-01-06 09:53:00
4:53 AM,-0.9,-11.9,60,30.48,10.0,WNW,8.1,-,N/A,,Clear,300,2014-01-06 10:53:00
5:53 AM,-2.0,-11.9,63,30.49,10.0,WNW,8.1,-,N/A,,Clear,300,2014-01-06 11:53:00
6:53 AM,-2.9,-11.9,65,30.52,10.0,NW,15.0,25.3,N/A,,Clear,310,2014-01-06 12:53:00
7:53 AM,-4.0,-15.0,59,30.55,10.0,NW,15.0,23.0,N/A,,Clear,320,2014-01-06 13:53:00
8:53 AM,-2.9,-17.0,51,30.58,10.0,NW,18.4,26.5,N/A,,Clear,320,2014-01-06 14:53:00
9:53 AM,-0.9,-16.1,49,30.60,10.0,NW,11.5,-,N/A,,Clear,310,2014-01-06 15:53:00
10:53 AM,1.0,-16.1,45,30.57,10.0,WNW,13.8,-,N/A,,Clear,300,2014-01-06 16:53:00
11:53 AM,1.9,-15.0,45,30.54,10.0,West,19.6,24.2,N/A,,Clear,280,2014-01-06 17:53:00
12:53 PM,3.0,-14.1,45,30.53,10.0,West,17.3,24.2,N/A,,Clear,280,2014-01-06 18:53:00
1:53 PM,5.0,-13.0,43,30.51,10.0,WNW,17.3,24.2,N/A,,Clear,290,2014-01-06 19:53:00
2:53 PM,6.1,-13.0,41,30.52,10.0,West,13.8,18.4,N/A,,Clear,280,2014-01-06 20:53:00
3:53 PM,6.1,-13.0,41,30.52,10.0,West,13.8,20.7,N/A,,Clear,280,2014-01-06 21:53:00
4:53 PM,3.9,-14.1,43,30.53,10.0,WNW,15.0,19.6,N/A,,Clear,300,2014-01-06 22:53:00
5:53 PM,1.0,-13.0,52,30.55,10.0,WNW,8.1,-,N/A,,Clear,290,2014-01-06 23:53:00
6:53 PM,-0.0,-13.0,54,30.57,10.0,WNW,9.2,-,N/A,,Clear,290,2014-01-07 00:53:00
7:53 PM,-0.9,-13.0,57,30.58,10.0,West,5.8,-,N/A,,Clear,270,2014-01-07 01:53:00
8:53 PM,-2.0,-13.0,60,30.58,10.0,West,5.8,-,N/A,,Clear,280,2014-01-07 02:53:00
9:53 PM,-2.0,-11.9,63,30.58,10.0,West,5.8,-,N/A,,Clear,260,2014-01-07 03:53:00
10:53 PM,-2.9,-11.9,65,30.56,10.0,WSW,6.9,-,N/A,,Clear,250,2014-01-07 04:53:00
11:53 PM,-2.9,-11.9,65,30.56,10.0,SW,6.9,-,N/A,,Clear,230,2014-01-07 05:53:00